Limon, CO

6:25 AM MDT on August 21, 2017 (GMT -0600)
Limon Municipal

Weather History for KLIC - December, 2013

Change the Weather History Date:

Monday, December 23, 2013

  Actual Average Record
Temperature  
Mean Temperature 22 °F -  
Max Temperature 34 °F - 60 °F (2005)
Min Temperature 9 °F - -20 °F (2004)
Degree Days  
Heating Degree Days 43    
Month to date heating degree days 989  
Cooling Degree Days 0    
Month to date cooling degree days 0  
Moisture  
Dew Point 12 °F    
Average Humidity 70    
Maximum Humidity 92    
Minimum Humidity 47    
Precipitation  
Precipitation T in - 0.03 in (2008)
Month to date precipitation 0.09  
Year to date precipitation 17.17  
Sea Level Pressure  
Sea Level Pressure 30.31 in    
Wind  
Wind Speed 8 mph (NW)    
Max Wind Speed 20 mph    
Max Gust Speed 25 mph    
Visibility 10 miles    
Events Snow    
T = Trace of Precipitation, MM = Missing Value Source: NWS Daily Summary

Daily Weather History Graph

Daily Weather History Graph

Search for Another Location

Airport or City:

Trip Planner

Search our weather history database for the weather conditions in past years. The results will help you decide how hot, cold, wet, or windy it might be!

Date:

Astronomy

Dec. 23, 2013 Rise Set
Actual Time 7:11 AM MST 4:36 PM MST
Civil Twilight 6:41 AM MST 5:06 PM MST
Nautical Twilight 6:07 AM MST 5:40 PM MST
Astronomical Twilight 5:35 AM MST 6:12 PM MST
Moon 10:46 PM MST (12/23) 10:40 AM MST (12/23)
Length of Visible Light 10h 24m
Length of Day
9h 24m
Waning Gibbous, 67% of the Moon is Illuminated
Dec 23
Waning Gibbous
Dec 25
Last Quarter
Jan 1
New
Jan 7
First Quarter
Jan 15
Full

Hourly Weather History & Observations

Time (MST) Temp. Windchill Dew Point Humidity Pressure Visibility Wind Dir Wind Speed Gust Speed Precip Events Conditions
12:31 AM 21.9 °F 11.7 °F 19.0 °F 89% 30.15 in 10.0 mi NNW 9.2 mph - N/A   Mostly Cloudy
12:55 AM 21.0 °F 8.1 °F 18.0 °F 88% 30.23 in 10.0 mi NNW 13.8 mph - N/A   Overcast
1:17 AM 19.0 °F 8.2 °F 16.0 °F 88% 30.18 in 6.0 mi NNE 9.2 mph 21.9 mph 0.00 in Snow Light Snow
1:51 AM 17.6 °F 5.0 °F 14.0 °F 86% 30.20 in 9.0 mi NNE 11.5 mph - 0.00 in   Overcast
1:55 AM 16.0 °F 5.3 °F 12.9 °F 88% 30.29 in 10.0 mi NNE 8.1 mph - 0.00 in   Overcast
2:12 AM 15.1 °F 5.2 °F 12.9 °F 91% 30.20 in 8.0 mi North 6.9 mph - 0.00 in   Overcast
2:31 AM 12.9 °F 0.7 °F 10.9 °F 92% 30.21 in 10.0 mi North 9.2 mph - 0.00 in   Scattered Clouds
2:55 AM 12.0 °F 1.5 °F 10.0 °F 92% 30.32 in 10.0 mi North 6.9 mph - 0.00 in   Clear
3:55 AM 10.0 °F -0.9 °F 8.1 °F 92% 30.34 in 10.0 mi NNW 6.9 mph - N/A   Scattered Clouds
4:55 AM 10.9 °F 2.9 °F 9.0 °F 92% 30.35 in 10.0 mi North 4.6 mph - N/A   Overcast
5:55 AM 10.9 °F 4.7 °F 8.1 °F 88% 30.35 in 10.0 mi NNW 3.5 mph - N/A   Overcast
6:55 AM 10.9 °F - 8.1 °F 88% 30.38 in 10.0 mi Calm Calm - N/A   Mostly Cloudy
7:55 AM 10.9 °F 2.9 °F 8.1 °F 88% 30.42 in 10.0 mi West 4.6 mph - N/A   Clear
8:55 AM 19.0 °F - 14.0 °F 81% 30.41 in 10.0 mi Calm Calm - N/A   Clear
9:55 AM 21.9 °F 15.7 °F 16.0 °F 78% 30.41 in 10.0 mi SSE 4.6 mph - N/A   Clear
10:55 AM 28.9 °F 19.8 °F 16.0 °F 58% 30.36 in - SSW 10.4 mph - N/A   Clear
11:55 AM 32.0 °F 21.6 °F 15.1 °F 50% 30.33 in - South 15.0 mph - N/A   Clear
12:55 PM 33.1 °F 23.4 °F 16.0 °F 50% 30.30 in 10.0 mi SSW 13.8 mph - N/A   Clear
1:55 PM 33.1 °F 22.2 °F 16.0 °F 50% 30.29 in 10.0 mi SSW 17.3 mph - N/A   Clear
2:55 PM 34.0 °F 25.5 °F 16.0 °F 48% 30.30 in 10.0 mi South 11.5 mph - N/A   Clear
3:55 PM 32.0 °F 23.6 °F 16.0 °F 52% 30.30 in 10.0 mi South 10.4 mph - N/A   Clear
4:55 PM 25.0 °F 16.3 °F 15.1 °F 66% 30.33 in 10.0 mi SSE 8.1 mph - N/A   Clear
5:55 PM 21.0 °F 11.4 °F 12.9 °F 71% 30.36 in 10.0 mi ESE 8.1 mph - N/A   Clear
6:55 PM 19.0 °F 12.3 °F 12.0 °F 74% 30.36 in 10.0 mi SE 4.6 mph - N/A   Clear
7:55 PM 16.0 °F - 10.9 °F 81% 30.36 in 10.0 mi Calm Calm - N/A   Clear
8:55 PM 12.0 °F - 8.1 °F 84% 30.32 in 10.0 mi Calm Calm - N/A   Clear
9:55 PM 10.0 °F - 7.0 °F 87% 30.32 in 10.0 mi Calm Calm - N/A   Clear
10:55 PM 9.0 °F - 6.1 °F 88% 30.30 in 10.0 mi Calm Calm - N/A   Clear
11:55 PM 10.9 °F - 7.0 °F 84% 30.24 in 10.0 mi Calm Calm - N/A   Clear